Terug naar catalogus

SATCOM 3 DEB

ActiefHEO
NORAD 32993·DEBRIS·🇺🇸 United States

Gelanceerd Dec 7, 1979 vanaf Cape Canaveral Space Force Station

Loading…

Volgende Passages (komende 24 uur)

TLE

VersSource: Space-Track

Epoch: Sep 14, 2026, 12:34 UTC

1 32993U 79101U   26257.52427238 -.00000110  00000-0  00000-0 0  9992
2 32993   7.2376 162.0071 4629658 320.6934 299.5651  1.81392944130324

Volg SATCOM 3 DEB in realtime met AllMySat

Download on the App Store